User: anonymous   Login
Location: Shenandoah County Park
(38.9356°N, 78.4524°W)
Time: 23:53:58
(UTC-05:00)
Language:

NOAA 19 - Orbit

View from above orbital plane
View from above orbital plane
View from above satellite
View from above satellite

Ground track
Ground track

The orbit data is extracted from the following two-line orbital elements,

1 33591U 09005A   24062.80048295  .00000239  00000-0  15307-3 0  9998
2 33591  99.0626 117.4139 0013195 229.2383 130.7644 14.12938175776601
Epoch (UTC): 02 March 2024 19:12:41
Eccentricity: 0.0013195
inclination: 99.0626°
perigee height: 840 km
apogee height: 859 km
right ascension of ascending node: 117.4139°
argument of perigee: 229.2383°
revolutions per day: 14.12938175
mean anomaly at epoch: 130.7644°
orbit number at epoch: 77660

The dashed part of the orbit path shows where the satellite is in the earth's shadow,  

DLR